sat.trackr.live / text

‹ back to catalog

STARLINK-30847

NORAD 58239 · 2023-171K

PAYLOAD ACTIVE UNKNOWN

§ Identity

Operator
Country
US
Launch date
2023-11-08
Launch site
AFETR
Launch vehicle
Mass (kg)
RCS (m²)

Purposes: comms

External: N2YO · Heavens-Above · Gunter

§ Orbital elements

Epoch: 2026-09-20T11:37:52.303296Z

Period
94.27 min
Inclination
43.0033°
Eccentricity
0.0001913
Mean motion
15.27589141 rev/d
Perigee alt
481.7 km
Apogee alt
484.3 km
Semi-major
6,861.2 km
B*
7.8012e-5
RAAN
265.3228°
Arg perigee
275.7727°
Mean anomaly
84.2907°
Rev number
15,952

§ Raw data

STARLINK-308471 58239U 23171K   26263.48463314  .00001886  00000+0  78012-4 0  99972 58239  43.0033 265.3228 0001913 275.7727  84.2907 15.27589141159526

JSON: /api/v1/satellites/58239 · /tle

For live sub-satellite position, see the globe view (requires WebGL).

§ Visibility from observer

Set your observer location to see the next 7 days of passes ≥ 10°. The values pass through the URL so the page stays shareable.

No JS? Fill the form by hand. The geolocation button needs JavaScript.